[[{"header":{"parameterUnit":"m.s-1","parameterCategory":1,"la1":30.2991,"la2":30.254,"lo1":-89.0895,"lo2":-89.0444,"dy":0.0017,"dx":0.0017,"nx":28,"ny":28,"refTime":"2023-09-14T09:00:00:Z","depth":0,"parameterNumber":2,"parameterNumberName":"U-component_of_WINDS"},"data":[0,0,0,0,0,0,0,0,0,0,0,0,0,0,0,0,0,0,0,0,0,0,0,0,0,0,0,0,0,0,0,0,0,0,0,0,0,0,0,0,0,0,0,0,0,0,0,0,0,0,0,0,0,0,0,0,0,0,-3.096,-3.096,0,-3.0949,-3.0949,-3.0949,-3.0833,-3.083,-3.0827,-3.0825,-3.0816,-3.0818,-3.082,0,0,0,0,0,0,0,0,0,0,0,0,0,-3.0881,-3.0883,-3.096,-3.096,-3.096,-3.0949,-3.0949,-3.0949,-3.0834,-3.083,-3.0827,-3.0823,-3.0815,-3.0818,-3.0821,0,0,0,0,0,0,0,0,0,0,0,0,0,-3.0898,-3.0884,-3.096,-3.0901,-3.0895,-3.0949,-3.0949,-3.0949,-3.0835,-3.083,-3.0826,-3.0822,-3.0814,-3.0817,-3.0821,-3.0931,0,0,-3.0832,-3.0834,0,0,0,0,0,0,0,0,-3.0897,-3.0901,-3.091,-3.0905,-3.0899,-3.0888,-3.0918,-3.0943,-3.0836,-3.0858,-3.0825,-3.082,-3.0843,-3.0844,-3.0852,-3.0931,-3.0931,-3.0833,-3.0835,-3.0837,-3.0838,0,0,0,0,0,0,0,-3.0896,-3.09,-3.0956,-3.091,-3.0904,-3.0875,-3.0873,-3.0922,-3.0875,-3.0855,-3.0847,-3.0847,-3.084,-3.0849,-3.0851,-3.093,-3.0833,-3.0836,-3.0838,-3.084,-3.1098,-3.1102,0,0,0,0,0,0,-3.0903,-3.09,-3.0956,-3.0955,-3.0887,-3.088,-3.0877,-3.0896,-3.0874,-3.0867,-3.0851,-3.0842,-3.0845,-3.0847,-3.085,-3.0977,-3.0837,-3.084,-3.0842,-3.1093,-3.1099,-3.1104,0,0,0,0,0,0,-3.0902,-3.0909,-3.0956,-3.0926,-3.0929,-3.0886,-3.0908,-3.0898,-3.0907,-3.0871,-3.0862,-3.0869,-3.0841,-3.0845,-3.0912,-3.0975,-3.0842,-3.0845,-3.1088,-3.1095,-3.1102,-3.1232,0,0,0,0,0,0,-3.09,-3.0909,-3.095,-3.0927,-3.0932,-3.1018,-3.0912,-3.0901,-3.0914,-3.0902,-3.0885,-3.0879,-3.0838,-3.0907,-3.0915,-3.0978,-3.0848,-3.1082,-3.1091,-3.1099,-3.1222,-3.1243,-3.1261,0,0,0,0,0,-3.0897,-3.0988,-3.0953,-3.0961,-3.0982,-3.1022,-3.1025,-3.0976,-3.0919,-3.096,-3.0937,-3.0879,-3.0967,-3.0915,-3.0923,-3.0988,-3.1078,-3.1089,-3.1099,-3.1213,-3.1239,-3.126,0,0,0,0,0,0,-3.1021,-3.0984,-3.0945,-3.1031,-3.1031,-3.1003,-3.1053,-3.1004,-3.102,-3.1008,-3.0947,-3.0945,-3.1021,-3.1011,-3.0953,-3.1093,-3.1012,-3.1025,-3.1096,-3.112,-3.1139,-3.114,-3.0851,0,0,0,0,0,-3.1058,-3.1093,-3.1059,-3.1139,-3.114,-3.1097,-3.1113,-3.1075,-3.1072,-3.1072,-3.1053,-3.1053,-3.108,-3.11,-3.1123,-3.122,-3.1215,-3.1269,-3.1288,-3.1304,-3.1316,-3.1365,-3.1389,-3.1138,-3.1138,-3.1138,0,0,-3.1135,-3.112,-3.1146,-3.1163,-3.1158,-3.1196,-3.1098,-3.1142,-3.1169,-3.1078,-3.114,-3.1127,-3.1122,-3.1205,-3.124,-3.1199,-3.1383,-3.1317,-3.133,-3.1333,-3.1379,-3.1402,-3.1423,-3.1145,-3.1144,-3.1143,0,0,-3.1295,-3.1287,-3.1352,-3.1349,-3.1342,-3.1313,-3.1328,-3.1308,-3.1295,-3.1356,-3.1288,-3.132,-3.1368,-3.1368,-3.1374,-3.1533,-3.1481,-3.1543,-3.1643,-3.1693,-3.1712,-3.1729,-3.1786,-3.1807,-3.1555,-3.1555,-3.1555,0,-3.1392,-3.1446,-3.1391,-3.144,-3.1449,-3.1368,-3.1432,-3.1432,-3.1435,-3.1443,-3.1397,-3.1455,-3.1447,-3.1527,-3.1566,-3.1574,-3.159,-3.1544,-3.1714,-3.173,-3.1746,-3.1798,-3.182,-3.1562,-3.1562,-3.1561,-3.156,0,-3.1565,-3.1604,-3.1657,-3.1659,-3.1675,-3.1732,-3.1686,-3.1708,-3.1669,-3.1644,-3.1707,-3.1694,-3.1712,-3.1729,-3.1692,-3.1804,-3.1779,-3.1724,-3.1642,-3.1778,-3.1827,-3.1846,-3.1573,-3.1571,-3.1568,-3.1566,0,0,-3.1803,-3.1774,-3.1795,-3.1794,-3.1781,-3.181,-3.1863,-3.188,-3.19,-3.1904,-3.1947,-3.199,-3.1939,-3.1946,-3.1908,-3.1951,-3.2077,-3.1891,-3.189,-3.1925,-3.22,-3.224,-3.2265,-3.2042,-3.2046,-3.2049,-3.22,0,-3.1957,-3.2044,-3.1996,-3.2091,-3.2125,-3.2048,-3.2094,-3.2091,-3.2069,-3.2095,-3.2072,-3.2103,-3.2034,-3.2037,-3.2077,-3.2054,-3.2131,-3.2042,-3.2081,-3.2083,-3.2084,-3.229,-3.2333,-3.2477,-3.2219,-3.2222,-3.2224,0,-3.2147,-3.2158,-3.2256,-3.2235,-3.2248,-3.229,-3.2301,-3.2328,-3.2322,-3.2304,-3.2312,-3.2263,-3.2313,-3.2232,-3.2301,-3.2241,-3.2254,-3.2246,-3.225,-3.2251,-3.2162,-3.2297,-3.2521,-3.2543,-3.2254,-3.2251,-3.2249,0,-3.231,-3.2349,-3.2412,-3.2415,-3.2392,-3.2424,-3.2416,-3.2406,-3.2419,-3.243,-3.2438,-3.2455,-3.2464,-3.2479,-3.2436,-3.2381,-3.251,-3.2426,-3.2496,-3.2497,-3.2526,-3.2525,-3.2755,-3.2536,-3.2536,-3.2535,-3.2535,0,-3.2486,-3.2549,-3.2485,-3.2524,-3.2592,-3.2536,-3.2605,-3.2589,-3.2581,-3.2615,-3.255,-3.2584,-3.2526,-3.2554,-3.2521,-3.2582,-3.2587,-3.2574,-3.2564,-3.2579,-3.2581,-3.2586,-3.2575,-3.2541,-3.254,-3.2539,-3.2538,0,-3.2679,-3.2639,-3.2702,-3.2675,-3.267,-3.2721,-3.2698,-3.2733,-3.2707,-3.2751,-3.2759,-3.2718,-3.2748,-3.2706,-3.2733,-3.271,-3.2794,-3.277,-3.2796,-3.2788,-3.2861,-3.2854,-3.3102,-3.3132,-3.2895,-3.2897,-3.2899,0,-3.2793,-3.2839,-3.2817,-3.2835,-3.2831,-3.2861,-3.2873,-3.2821,-3.2837,-3.2834,-3.287,-3.2894,-3.291,-3.2961,-3.2934,-3.2954,-3.2929,-3.3014,-3.2931,-3.2945,-3.2929,-3.2927,-3.2931,-3.3031,-3.3034,-3.3037,-3.3038,0,-3.3001,-3.2978,-3.2999,-3.3013,-3.303,-3.3038,-3.3042,-3.3061,-3.3005,-3.3027,-3.3056,-3.3069,-3.3094,-3.3119,-3.3131,-3.3123,-3.3072,-3.3065,-3.3082,-3.3098,-3.311,-3.3103,-3.2841,-3.3059,-3.3057,-3.3056,-3.3055,-3.3054,-3.3157,-3.3194,-3.3184,-3.3209,-3.3206,-3.3211,-3.3242,-3.3219,-3.3242,-3.3258,-3.3226,-3.3263,-3.3256,-3.3267,-3.3265,-3.3293,-3.3256,-3.3281,-3.3287,-3.3294,-3.3305,-3.3106,-3.3296,-3.3295,-3.3294,-3.3294,-3.3293,0,-3.336,-3.3349,-3.3373,-3.338,-3.3399,-3.3348,-3.335,-3.337,-3.3403,-3.3401,-3.3418,-3.3451,-3.3475,-3.345,-3.3468,-3.3496,-3.3473,-3.3503,-3.35,-3.3499,-3.3338,-3.3321,-3.3521,-3.3521,-3.3521,-3.3521,-3.3521,-3.3521,-3.3468,-3.3527,-3.3504,-3.3561,-3.355,-3.3585,-3.359,-3.3594,-3.3592,-3.3632,-3.365,-3.3634,-3.3622,-3.3639,-3.3659,-3.3651,-3.366,-3.3699,-3.3682,-3.3532,-3.351,-3.3489,-3.3472,-3.3701,-3.3702,-3.3841,-3.3842,-3.3843]},{"header":{"parameterUnit":"m.s-1","parameterCategory":1,"la1":30.2991,"la2":30.254,"lo1":-89.0895,"lo2":-89.0444,"dy":0.0017,"dx":0.0017,"nx":28,"ny":28,"refTime":"2023-09-14T09:00:00:Z","depth":0,"parameterNumber":3,"parameterNumberName":"V-component_of_WINDS"},"data":[0,0,0,0,0,0,0,0,0,0,0,0,0,0,0,0,0,0,0,0,0,0,0,0,0,0,0,0,0,0,0,0,0,0,0,0,0,0,0,0,0,0,0,0,0,0,0,0,0,0,0,0,0,0,0,0,0,0,-2.5421,-2.5421,0,-2.55,-2.5501,-2.5502,-2.5511,-2.551,-2.5509,-2.5509,-2.5587,-2.5589,-2.5592,0,0,0,0,0,0,0,0,0,0,0,0,0,-2.5271,-2.5273,-2.542,-2.5421,-2.5422,-2.55,-2.5501,-2.5502,-2.5511,-2.551,-2.5509,-2.5508,-2.5586,-2.5589,-2.5592,0,0,0,0,0,0,0,0,0,0,0,0,0,-2.5341,-2.5274,-2.542,-2.5436,-2.5439,-2.55,-2.5501,-2.5503,-2.5511,-2.551,-2.5509,-2.5508,-2.5585,-2.5589,-2.5593,-2.5643,0,0,-2.5606,-2.5608,0,0,0,0,0,0,0,0,-2.5337,-2.5347,-2.5433,-2.5435,-2.5438,-2.5495,-2.5477,-2.555,-2.5512,-2.5484,-2.5509,-2.5507,-2.5557,-2.5563,-2.5581,-2.5646,-2.565,-2.5606,-2.5609,-2.5611,-2.5612,0,0,0,0,0,0,0,-2.5333,-2.5344,-2.5452,-2.5434,-2.5437,-2.5438,-2.5447,-2.5491,-2.5526,-2.5486,-2.5487,-2.5496,-2.5558,-2.5577,-2.5583,-2.5651,-2.5606,-2.561,-2.5612,-2.5614,-2.576,-2.5761,0,0,0,0,0,0,-2.5325,-2.5339,-2.5449,-2.5454,-2.5384,-2.5442,-2.5451,-2.5478,-2.5525,-2.5532,-2.5497,-2.5496,-2.557,-2.5578,-2.5585,-2.5646,-2.5611,-2.5614,-2.5617,-2.5758,-2.576,-2.5761,0,0,0,0,0,0,-2.5322,-2.5335,-2.5446,-2.5397,-2.5411,-2.5445,-2.5475,-2.548,-2.5499,-2.5534,-2.554,-2.551,-2.5569,-2.5579,-2.5628,-2.5649,-2.5616,-2.562,-2.5757,-2.5759,-2.5761,-2.5768,0,0,0,0,0,0,-2.5318,-2.5334,-2.5354,-2.5398,-2.5414,-2.5489,-2.5476,-2.5482,-2.5506,-2.5506,-2.5548,-2.5553,-2.5569,-2.5622,-2.5632,-2.5654,-2.5624,-2.5755,-2.5758,-2.576,-2.5766,-2.5769,-2.5773,0,0,0,0,0,-2.5312,-2.5353,-2.5355,-2.5369,-2.5441,-2.549,-2.55,-2.5518,-2.5508,-2.5528,-2.555,-2.5552,-2.5645,-2.5627,-2.5639,-2.5662,-2.5754,-2.5757,-2.576,-2.5764,-2.5769,-2.5773,0,0,0,0,0,0,-2.5309,-2.5359,-2.5362,-2.5418,-2.545,-2.5492,-2.5518,-2.5523,-2.5557,-2.5556,-2.5576,-2.5585,-2.5633,-2.5652,-2.5631,-2.5712,-2.5698,-2.5704,-2.5697,-2.5702,-2.5705,-2.5699,-2.5627,0,0,0,0,0,-2.5316,-2.5354,-2.5394,-2.5439,-2.5455,-2.5484,-2.5506,-2.5517,-2.5551,-2.5564,-2.559,-2.5622,-2.5658,-2.5681,-2.5716,-2.5769,-2.5777,-2.579,-2.5794,-2.5796,-2.5801,-2.5828,-2.5834,-2.5771,-2.5771,-2.5771,0,0,-2.5328,-2.536,-2.5382,-2.5439,-2.5465,-2.5502,-2.5495,-2.5535,-2.5562,-2.557,-2.5618,-2.5638,-2.5674,-2.5724,-2.5748,-2.5742,-2.582,-2.58,-2.5802,-2.5805,-2.5832,-2.5838,-2.5843,-2.5773,-2.5773,-2.5773,0,0,-2.537,-2.5398,-2.5438,-2.5465,-2.5505,-2.5524,-2.5533,-2.5574,-2.5588,-2.5637,-2.5643,-2.5675,-2.5737,-2.5762,-2.5783,-2.5833,-2.5835,-2.5844,-2.5863,-2.5889,-2.5894,-2.5898,-2.5915,-2.5921,-2.5848,-2.5848,-2.5848,0,-2.538,-2.5438,-2.5458,-2.5498,-2.5522,-2.5532,-2.5571,-2.5596,-2.5645,-2.566,-2.5653,-2.5731,-2.5756,-2.5812,-2.5824,-2.5841,-2.5851,-2.5839,-2.5892,-2.5897,-2.5901,-2.5917,-2.5923,-2.5849,-2.5849,-2.5849,-2.5849,0,-2.5447,-2.5487,-2.5514,-2.5562,-2.559,-2.5629,-2.5654,-2.5678,-2.5687,-2.5706,-2.5754,-2.5785,-2.5826,-2.584,-2.5849,-2.5897,-2.5892,-2.5888,-2.5875,-2.5907,-2.5923,-2.5929,-2.585,-2.585,-2.585,-2.5849,0,0,-2.5489,-2.5548,-2.5558,-2.5579,-2.5624,-2.5654,-2.5693,-2.5734,-2.5754,-2.5787,-2.5819,-2.5872,-2.5868,-2.5892,-2.5904,-2.5927,-2.5963,-2.5921,-2.5922,-2.5926,-2.6016,-2.6017,-2.6024,-2.5965,-2.5966,-2.5967,-2.6012,0,-2.5535,-2.5606,-2.5625,-2.5685,-2.5721,-2.5731,-2.5764,-2.5794,-2.5813,-2.5845,-2.5864,-2.59,-2.5894,-2.5909,-2.5932,-2.5954,-2.5981,-2.5951,-2.5993,-2.5995,-2.5983,-2.6032,-2.6034,-2.6075,-2.6018,-2.602,-2.602,0,-2.5598,-2.5633,-2.5697,-2.5736,-2.5752,-2.5782,-2.5821,-2.5852,-2.5885,-2.5897,-2.5923,-2.5932,-2.5971,-2.5956,-2.601,-2.5989,-2.6007,-2.602,-2.6022,-2.6026,-2.6009,-2.6036,-2.6089,-2.6095,-2.603,-2.6029,-2.6029,0,-2.5621,-2.5684,-2.573,-2.5748,-2.5796,-2.5816,-2.5836,-2.5869,-2.5892,-2.5925,-2.594,-2.5977,-2.5997,-2.6025,-2.6043,-2.6031,-2.6094,-2.6081,-2.6103,-2.6103,-2.6115,-2.6114,-2.6171,-2.6129,-2.6129,-2.6129,-2.6129,0,-2.5669,-2.5707,-2.5741,-2.5769,-2.5812,-2.5832,-2.5873,-2.5894,-2.5922,-2.5953,-2.5964,-2.5992,-2.6015,-2.6046,-2.606,-2.6101,-2.6111,-2.612,-2.6123,-2.6118,-2.6117,-2.613,-2.6127,-2.6131,-2.613,-2.613,-2.613,0,-2.5701,-2.5726,-2.5776,-2.5817,-2.5828,-2.5857,-2.5891,-2.5918,-2.5936,-2.5975,-2.5985,-2.6014,-2.6051,-2.6072,-2.6119,-2.6128,-2.6174,-2.6176,-2.6163,-2.6164,-2.6184,-2.6182,-2.625,-2.626,-2.6213,-2.6213,-2.6214,0,-2.573,-2.576,-2.5804,-2.5826,-2.5847,-2.5882,-2.5906,-2.5927,-2.5951,-2.5991,-2.6012,-2.605,-2.6082,-2.614,-2.6164,-2.62,-2.6202,-2.6224,-2.6207,-2.6201,-2.6201,-2.6198,-2.6201,-2.6226,-2.6226,-2.6227,-2.6227,0,-2.5778,-2.5789,-2.5823,-2.5862,-2.589,-2.5922,-2.5952,-2.5969,-2.5995,-2.6021,-2.606,-2.6084,-2.6132,-2.6169,-2.6206,-2.6225,-2.623,-2.6232,-2.6239,-2.6234,-2.6225,-2.6229,-2.6169,-2.623,-2.623,-2.623,-2.623,-2.6229,-2.5809,-2.5835,-2.587,-2.5908,-2.5933,-2.5962,-2.5989,-2.6011,-2.6044,-2.6085,-2.6095,-2.6135,-2.6167,-2.6217,-2.6237,-2.6268,-2.6264,-2.6274,-2.6276,-2.6278,-2.6278,-2.6221,-2.6275,-2.6275,-2.6275,-2.6274,-2.6274,0,-2.5856,-2.5879,-2.5914,-2.5957,-2.5986,-2.599,-2.6024,-2.6047,-2.6083,-2.6113,-2.6144,-2.6187,-2.6223,-2.625,-2.6286,-2.6305,-2.6308,-2.6313,-2.6312,-2.6316,-2.628,-2.627,-2.631,-2.631,-2.631,-2.631,-2.631,-2.631,-2.5885,-2.5929,-2.5943,-2.6,-2.6022,-2.6063,-2.6081,-2.6107,-2.6131,-2.6179,-2.6209,-2.6227,-2.6255,-2.6293,-2.6325,-2.6332,-2.6344,-2.6349,-2.6356,-2.6322,-2.6318,-2.6315,-2.6305,-2.6352,-2.6352,-2.6389,-2.6389,-2.639]}]]